Weather History for CWEU - June, 2013

Change the Weather History Date:

Saturday, June 15, 2013

  Actual Average Record
Temperature  
Mean Temperature 36 °F -  
Max Temperature 38 °F 44 °F 50 °F (1998)
Min Temperature 35 °F 34 °F 33 °F (1999)
Degree Days  
Heating Degree Days 28    
Moisture  
Dew Point 32 °F    
Average Humidity 82    
Maximum Humidity 87    
Minimum Humidity 68    
Precipitation  
Precipitation 0.01 in 0.01 in - ()
Sea Level Pressure  
Sea Level Pressure 29.77 in    
Wind  
Wind Speed 16 mph ()    
Max Wind Speed 25 mph    
Max Gust Speed 29 mph    
Visibility 15.0 miles    
Events Rain    
Averages and records for this station are not official NWS values.
T = Trace of Precipitation, MM = Missing Value Source: Averaged Metar Reports

Daily Weather History Graph

Daily Weather History Graph

Search for Another Location

Airport or City:

Trip Planner

Search our weather history database for the weather conditions in past years. The results will help you decide how hot, cold, wet, or windy it might be!

Date:

Astronomy

Dec. 31, 1969 Rise Set
Actual Time Sun does not rise Sun does not rise
Civil Twilight Sun does not rise Sun does not rise
Nautical Twilight Sun does not rise Sun does not rise
Astronomical Twilight Sun does not rise Sun does not rise
Moon 10:55 AM CDT (6/15) 1:17 AM CDT (6/15)
Length of Visible Light 24h 00m
Length of Day
24h 00m
Waxing Crescent, 40% of the Moon is Illuminated
Jun 15
Waxing Crescent
Jun 16
First Quarter
Jun 23
Full
Jun 29
Last Quarter
Jul 8
New

Hourly Weather History & Observations

Time (CDT) Temp. Windchill Dew Point Humidity Pressure Visibility Wind Dir Wind Speed Gust Speed Precip Events Conditions
1:00 AM 39 °F - 33 °F 70% 29.88 in 15 mi SW 18.4 mph - -   Partly Cloudy
1:00 AM 39.2 °F 29.8 °F 32.0 °F 75% 29.88 in 15.0 mi SW 18.4 mph 24.2 mph N/A   Mostly Cloudy
2:00 AM 37.4 °F 28.9 °F 33.8 °F 87% 29.88 in 15.0 mi South 13.8 mph 19.6 mph N/A   Mostly Cloudy
3:00 AM 37.4 °F 27.8 °F 32.0 °F 81% 29.86 in 15.0 mi South 17.3 mph 23.0 mph N/A   Mostly Cloudy
4:00 AM 37.4 °F 29.8 °F 32.0 °F 81% 29.86 in 15.0 mi SSW 11.5 mph 17.3 mph N/A   Mostly Cloudy
5:00 AM 37.4 °F 29.3 °F 32.0 °F 81% 29.85 in 15.0 mi SSW 12.7 mph 19.6 mph N/A   Mostly Cloudy
6:00 AM 39.2 °F 33.0 °F 33.8 °F 81% 29.84 in 15.0 mi South 9.2 mph - N/A   Mostly Cloudy
7:00 AM 37 °F - 33 °F 79% 29.82 in 15 mi SSW 12.7 mph - -   Mostly Cloudy
7:00 AM 37.4 °F 29.3 °F 33.8 °F 87% 29.82 in 15.0 mi SSW 12.7 mph - N/A   Mostly Cloudy
8:00 AM 37.4 °F 27.5 °F 33.8 °F 87% 29.81 in 15.0 mi SW 18.4 mph - N/A   Mostly Cloudy
9:00 AM 37.4 °F 28.2 °F 32.0 °F 81% 29.79 in 15.0 mi SSW 16.1 mph - N/A   Mostly Cloudy
10:00 AM 37.4 °F 25.9 °F 32.0 °F 81% 29.78 in 15.0 mi SW 25.3 mph - N/A   Mostly Cloudy
11:00 AM 39.2 °F 28.7 °F 32.0 °F 75% 29.77 in 15.0 mi SSW 23.0 mph - N/A   Mostly Cloudy
12:00 PM 37.4 °F 26.6 °F 32.0 °F 81% 29.74 in 15.0 mi SSW 21.9 mph 27.6 mph N/A   Mostly Cloudy
1:00 PM 38 °F - 31 °F 68% 29.74 in 15 mi SW 21.9 mph - -   Overcast
1:00 PM 37.4 °F 26.9 °F 32.0 °F 81% 29.74 in 15.0 mi SW 20.7 mph 27.6 mph N/A   Overcast
1:42 PM - - - N/A% - 15.0 mi SSW 18.4 mph 24.2 mph N/A Rain Light Rain
2:00 PM 37.4 °F 27.2 °F 32.0 °F 81% 29.71 in 15.0 mi SW 19.6 mph - N/A Rain Light Rain
3:00 PM 35.6 °F 25.2 °F 32.0 °F 87% 29.71 in 15.0 mi SW 18.4 mph 24.2 mph N/A Rain Light Rain
4:00 PM 35.6 °F 23.4 °F 32.0 °F 87% 29.69 in 15.0 mi SW 25.3 mph - N/A Rain Light Rain
5:00 PM 35.6 °F 25.2 °F 32.0 °F 87% 29.71 in 15.0 mi SSE 18.4 mph - N/A Rain Light Rain
6:00 PM 35.6 °F 23.4 °F 32.0 °F 87% 29.69 in 15.0 mi SW 25.3 mph - N/A Rain Light Rain
7:00 PM 36 °F - 31 °F 77% 29.68 in 15 mi SW 25.3 mph - - Rain Light Rain
7:00 PM 35.6 °F 23.4 °F 32.0 °F 87% 29.68 in 15.0 mi SW 25.3 mph - N/A Rain Light Rain
7:36 PM - - - N/A% - 15.0 mi SW 21.9 mph 28.8 mph N/A   Mostly Cloudy
8:00 PM 35.6 °F 23.7 °F 32.0 °F 87% 29.68 in 15.0 mi SW 24.2 mph - N/A   Mostly Cloudy
9:00 PM 35.6 °F 25.5 °F 32.0 °F 87% 29.69 in 15.0 mi SW 17.3 mph - N/A   Mostly Cloudy
10:00 PM 35.6 °F 26.6 °F 32.0 °F 87% 29.68 in 15.0 mi SW 13.8 mph 19.6 mph N/A   Mostly Cloudy